FW8585 Weather Reports


Display with metric or nautical units.
time (UTC)temp
F
wind
direction
speed
MPH
gust
MPH
rain 1hr
in
rain 24hr
in
rain mn
in
humidity
%
barometer
mb
20260509191733 88 270 1.0 3.0 0.00 0.00 0.00 62 1007.0
20260509185733 85 247 0.0 3.0 0.00 0.00 0.00 68 1007.2
20260509184733 85 247 1.0 4.0 0.00 0.00 0.00 66 1007.5
20260509183833 86 271 3.0 4.0 0.00 0.00 0.00 66 1007.4
20260509182833 85 301 0.0 3.0 0.00 0.00 0.00 68 1007.6
20260509181833 84 261 4.0 6.0 0.00 0.00 0.00 68 1007.9
20260509181734 84 247 5.0 7.0 0.00 0.00 0.00 68 1007.8
20260509180734 84 260 4.0 6.0 0.00 0.00 0.00 70 1007.9
20260509175733 84 283 2.0 5.0 0.00 0.00 0.00 70 1008.3
20260509172732 85 251 5.0 7.0 0.00 0.00 0.00 73 1008.2
20260509170732 82 247 1.0 3.0 0.00 0.00 0.00 77 1008.1
20260509165832 81 224 4.0 8.0 0.00 0.00 0.00 78 1007.9
20260509164834 81 223 2.0 4.0 0.00 0.00 0.00 79 1008.1
20260509163832 81 247 0.0 1.0 0.00 0.00 0.00 81 1008.2
20260509163750 81 247 2.0 3.0 0.00 0.00 0.00 81 1008.1
20260509161731 80 360 2.0 2.0 0.00 0.00 0.00 80 1008.5
20260509161632 80 360 2.0 3.0 0.00 0.00 0.00 81 1008.5
20260509161533 80 360 2.0 4.0 0.00 0.00 0.00 81 1008.5
20260509160531 80 263 1.0 3.0 0.00 0.00 0.00 83 1008.4
20260509160433 79 270 0.0 0.0 0.00 0.00 0.00 83 1008.4
20260509160350 79 270 0.0 0.0 0.00 0.00 0.00 83 1008.5
20260509155432 79 337 0.0 2.0 0.00 0.00 0.00 83 1008.6
20260509154434 79 152 0.0 1.0 0.00 0.00 0.00 87 1008.7
20260509153433 79 157 0.0 1.0 0.00 0.00 0.00 88 1008.8
20260509152431 78 157 0.0 0.0 0.00 0.00 0.00 88 1008.9
20260509151433 78 157 2.0 3.0 0.00 0.00 0.00 90 1008.8
20260509150432 78 157 2.0 3.0 0.00 0.00 0.00 92 1008.7
20260509145531 78 135 0.0 1.0 0.00 0.00 0.00 92 1008.7
20260509143532 77 180 0.0 1.0 0.00 0.00 0.00 92 1008.3
20260509142532 77 180 0.0 0.0 0.00 0.00 0.00 92 1008.3
20260509141533 77 180 1.0 2.0 0.00 0.00 0.00 93 1008.1
20260509140532 77 180 0.0 0.0 0.00 0.00 0.00 92 1008.2
20260509134533 77 225 0.0 0.0 0.00 0.00 0.00 93 1008.6
20260509133431 77 225 0.0 0.0 0.00 0.00 0.00 94 1008.5
20260509132434 76 225 0.0 0.0 0.00 0.00 0.00 94 1008.6
20260509131432 76 225 0.0 0.0 0.00 0.00 0.00 93 1008.8
20260509130431 76 225 0.0 1.0 0.00 0.00 0.00 94 1008.6
20260509125434 75 225 0.0 0.0 0.00 0.00 0.00 94 1008.8
20260509123535 75 225 0.0 0.0 0.00 0.00 0.00 94 1008.7
20260509122632 75 225 0.0 0.0 0.00 0.00 0.00 94 1008.9
20260509122533 75 225 0.0 0.0 0.00 0.00 0.00 94 1008.7
20260509120647 74 225 0.0 0.0 0.00 0.00 0.00 94 1008.1
20260509115730 74 225 0.0 0.0 0.00 0.00 0.00 94 1007.9
20260509114732 74 225 1.0 2.0 0.00 0.00 0.00 94 1007.9
20260509105831 74 45 0.0 0.0 0.00 0.00 0.00 94 1008.2
20260509104832 74 22 0.0 1.0 0.00 0.00 0.00 94 1008.6
20260509103834 74 22 0.0 0.0 0.00 0.00 0.00 94 1008.4
20260509102834 74 22 0.0 1.0 0.00 0.00 0.00 94 1008.1
20260509101831 74 22 0.0 0.0 0.00 0.00 0.00 94 1007.8
20260509095833 74 337 0.0 0.0 0.00 0.00 0.00 94 1007.1
20260509095731 74 337 0.0 0.0 0.00 0.00 0.00 94 1007.2
20260509094733 74 337 0.0 0.0 0.00 0.00 0.00 94 1007.2
20260509093830 74 337 0.0 0.0 0.00 0.00 0.00 94 1007.4
20260509092832 74 337 0.0 0.0 0.00 0.00 0.00 94 1007.9
20260509091831 74 337 0.0 0.0 0.00 0.00 0.00 94 1007.8
20260509090833 74 337 0.0 0.0 0.00 0.00 0.00 94 1007.9
20260509085832 74 337 0.0 1.0 0.00 0.00 0.00 94 1008.0
20260509085732 74 340 1.0 3.0 0.00 0.00 0.00 94 1008.0
20260509084731 74 347 1.0 2.0 0.00 0.00 0.00 94 1007.9
20260509084631 74 337 1.0 2.0 0.00 0.00 0.00 94 1008.0
20260509083632 74 15 1.0 3.0 0.00 0.00 0.00 94 1007.8
20260509082731 74 157 0.0 0.0 0.00 0.00 0.00 94 1007.9
20260509081732 74 157 0.0 0.0 0.00 0.00 0.00 94 1007.7
20260509080732 74 157 1.0 2.0 0.00 0.00 0.00 94 1007.7
20260509080633 74 157 2.0 3.0 0.00 0.00 0.00 94 1007.7
20260509075631 74 157 2.0 3.0 0.00 0.00 0.00 94 1007.7
20260509075532 74 157 3.0 4.0 0.00 0.00 0.00 94 1007.5
20260509074532 74 157 3.0 4.0 0.00 0.00 0.00 94 1007.8
20260509072631 74 180 2.0 3.0 0.00 0.00 0.00 94 1008.0
20260509070732 74 180 0.0 1.0 0.00 0.00 0.00 94 1008.1
20260509065731 74 180 0.0 0.0 0.00 0.00 0.00 94 1008.1
20260509065632 74 180 0.0 0.0 0.00 0.00 0.00 94 1008.1
20260509064730 74 180 1.0 1.0 0.00 0.00 0.00 94 1008.1
20260509063731 74 180 1.0 2.0 0.00 0.00 0.00 94 1008.2
20260509062732 74 180 1.0 1.0 0.00 0.00 0.00 94 1008.2
20260509062630 74 180 0.0 1.0 0.00 0.00 0.00 94 1008.0
20260509061633 74 180 0.0 1.0 0.00 0.00 0.00 94 1008.3
20260509061530 74 180 0.0 0.0 0.00 0.00 0.00 94 1008.3
20260509061434 74 180 0.0 1.0 0.00 0.00 0.00 94 1008.5
20260509060531 74 157 1.0 2.0 0.00 0.00 0.00 94 1008.4
20260509060431 74 157 2.0 2.0 0.00 0.00 0.00 94 1008.3
20260509055431 74 157 2.0 3.0 0.00 0.00 0.00 94 1008.5
20260509054433 74 180 2.0 2.0 0.00 0.00 0.00 94 1008.5
20260509053330 74 202 2.0 3.0 0.00 0.00 0.00 94 1008.6
20260509052331 74 202 0.0 0.0 0.00 0.00 0.00 94 1008.6
20260509050331 74 180 2.0 4.0 0.00 0.00 0.00 94 1008.4
20260509045429 74 202 1.0 2.0 0.00 0.00 0.00 94 1008.6
20260509045330 74 192 3.0 5.0 0.00 0.00 0.00 94 1008.5
20260509044429 74 190 5.0 7.0 0.00 0.00 0.00 94 1008.5
20260509043430 73 167 2.0 4.0 0.00 0.00 0.00 94 1008.5
20260509042431 73 180 4.0 6.0 0.00 0.00 0.00 93 1008.3
20260509041431 73 157 4.0 5.0 0.00 0.00 0.00 93 1008.5
20260509040430 73 165 2.0 4.0 0.00 0.00 0.00 94 1008.4
20260509034431 73 146 4.0 6.0 0.00 0.00 0.00 93 1008.2
20260509033431 73 163 3.0 4.0 0.00 0.00 0.00 94 1008.3
20260509032430 73 164 3.0 5.0 0.00 0.00 0.00 93 1008.2
20260509031431 73 199 1.0 2.0 0.00 0.00 0.00 93 1008.1
20260509030431 73 180 4.0 8.0 0.00 0.00 0.00 93 1008.0
20260509030329 73 180 3.0 7.0 0.00 0.00 0.00 93 1008.0
20260509025329 73 156 5.0 7.0 0.00 0.00 0.00 93 1007.8
20260509024330 73 170 3.0 7.0 0.00 0.00 0.00 93 1008.0
20260509023330 73 171 3.0 5.0 0.00 0.00 0.00 93 1007.7
20260509022331 73 131 7.0 11.0 0.00 0.00 0.00 93 1007.4
20260509020429 73 157 2.0 3.0 0.00 0.00 0.00 93 1007.8
20260509020330 73 157 3.0 4.0 0.00 0.00 0.00 93 1007.7
20260509015429 73 145 5.0 7.0 0.00 0.00 0.00 93 1007.4
20260509013530 73 139 6.0 7.0 0.00 0.00 0.00 93 1007.4
20260509012530 74 149 4.0 6.0 0.00 0.00 0.00 93 1007.5
20260509011628 74 135 8.0 11.0 0.00 0.00 0.00 93 1007.3
20260509010631 74 157 4.0 5.0 0.00 0.00 0.00 93 1007.2
20260509005631 74 151 4.0 6.0 0.00 0.00 0.00 93 1007.0
20260509005529 74 155 3.0 4.0 0.00 0.00 0.00 93 1007.1
20260509004546 73 155 4.0 7.0 0.00 0.00 0.00 92 1007.3
20260509003628 74 157 5.0 6.0 0.00 0.00 0.00 92 1007.3
20260509002631 73 149 5.0 6.0 0.00 0.00 0.00 92 1007.3
20260509001630 73 141 5.0 7.0 0.00 0.00 0.00 92 1007.5
20260509000631 74 151 6.0 8.0 0.00 0.00 0.00 91 1007.3
20260508235729 74 136 8.0 11.0 0.00 0.00 0.00 90 1007.2
20260508235631 74 153 4.0 9.0 0.00 0.00 0.00 90 1007.3
20260508234628 74 143 6.0 8.0 0.00 0.00 0.00 88 1007.6
20260508234546 74 144 6.0 9.0 0.00 0.00 0.00 88 1007.7
20260508233530 74 161 5.0 7.0 0.00 0.00 0.00 87 1007.6
20260508233447 74 150 5.0 8.0 0.00 0.00 0.00 87 1007.6
20260508232528 75 185 4.0 7.0 0.00 0.00 0.00 86 1007.6
20260508231532 75 167 3.0 5.0 0.00 0.00 0.00 85 1007.7
20260508231429 75 157 5.0 8.0 0.00 0.00 0.00 85 1007.6
20260508225447 76 178 3.0 6.0 0.00 0.00 0.00 83 1007.2
20260508224530 76 168 3.0 4.0 0.00 0.00 0.00 83 1007.4
20260508224429 76 188 3.0 5.0 0.00 0.00 0.00 83 1007.3
20260508223330 76 175 3.0 5.0 0.00 0.00 0.00 83 1007.3
20260508222329 76 176 2.0 3.0 0.00 0.00 0.00 81 1007.3
20260508222230 76 179 1.0 3.0 0.00 0.00 0.00 81 1007.3
20260508222131 76 157 4.0 4.0 0.00 0.00 0.00 81 1007.4
20260508221228 77 181 4.0 6.0 0.00 0.00 0.00 81 1007.5
20260508220230 77 202 2.0 4.0 0.00 0.00 0.00 80 1007.5
20260508215329 78 191 4.0 6.0 0.00 0.00 0.00 78 1007.3
20260508214344 78 180 2.0 5.0 0.00 0.00 0.00 78 1007.6